This demonstration page uses our WeatherBlox Daily Observations layout. Learn more.

Left ArrowRight Arrow

Hourly Observations for November 9, 2020

Temp ( °F °C ) Dew Point ( °F °C ) Humidity (%) Winds ( mph kmh ) Pressure ( in mb ) Visibility ( mi km ) Precip ( " mm )
12:51 am 00:51 Clear 52 11.1 34 1.1 50 50 NE 6 9 29.73 1007 10 16 0.00 0.00
1:51 am 01:51 Clear 53 11.7 34 1.1 48 48 NNW 15 24 29.72 1006 10 16 0.00 0.00
2:51 am 02:51 Clear 51 10.6 33 0.6 50 50 NW 13 20 29.73 1007 10 16 0.00 0.00
3:51 am 03:51 Mostly Clear 52 11.1 33 0.6 49 49 N 8 13 29.73 1007 10 16 0.00 0.00
4:51 am 04:51 Clear 47 8.3 32 0 56 56 ENE 6 9 29.77 1008 10 16 0.00 0.00
5:51 am 05:51 Mostly Clear 47 8.3 40 4.4 77 77 NW 10 17 29.81 1010 10 16 0.00 0.00
6:51 am 06:51 Mostly Cloudy 46 7.8 40 4.4 79 79 NW 15 24 29.87 1011 10 16 0.00 0.00
7:06 am 07:06 Cloudy 46 7.8 40 4.4 79 79 NW 15 24 29.94 1014 10 16 0.00 0.00
7:13 am 07:13 Cloudy 46 7.8 39 3.9 77 77 NW 17 28 29.95 1014 10 16 0.00 0.00
7:51 am 07:51 Cloudy 46 7.8 39 3.9 77 77 WNW 18 30 29.91 1013 10 16 0.00 0.00
8:51 am 08:51 Cloudy 48 8.9 36 2.2 63 63 NW 15 24 29.94 1014 10 16 0.00 0.00
9:51 am 09:51 Mostly Cloudy 51 10.6 35 1.7 54 54 NW 10 17 29.94 1014 10 16 0.00 0.00
10:51 am 10:51 Cloudy 52 11.1 33 0.6 49 49 WNW 15 24 29.95 1014 10 16 0.00 0.00
11:51 am 11:51 Cloudy 53 11.7 33 0.6 47 47 WNW 16 26 29.94 1014 10 16 0.00 0.00
12:51 pm 12:51 Cloudy 55 12.8 31 -0.6 40 40 NW 17 28 29.94 1014 10 16 0.00 0.00
1:51 pm 13:51 Cloudy 54 12.2 31 -0.6 42 42 NW 16 26 29.93 1013 10 16 0.00 0.00
2:51 pm 14:51 Cloudy 56 13.3 32 0 40 40 NW 23 37 29.93 1014 10 16 0.00 0.00
3:51 pm 15:51 Mostly Sunny 53 11.7 31 -0.6 43 43 NW 18 30 29.95 1014 10 16 0.00 0.00
4:51 pm 16:51 Mostly Cloudy 52 11.1 31 -0.6 45 45 NW 20 31 29.98 1015 10 16 0.00 0.00
5:51 pm 17:51 Clear 50 10 30 -1.1 46 46 NNW 15 24 30.01 1016 10 16 0.00 0.00
6:51 pm 18:51 Clear 49 9.4 30 -1.1 48 48 NW 12 19 30.04 1017 10 16 0.00 0.00
7:51 pm 19:51 Mostly Clear 48 8.9 30 -1.1 50 50 NW 8 13 30.06 1018 10 16 0.00 0.00
8:51 pm 20:51 Clear 45 7.2 30 -1.1 56 56 NNW 6 9 30.07 1018 10 16 0.00 0.00
9:51 pm 21:51 Clear 43 6.1 30 -1.1 60 60 NW 3 6 30.08 1019 10 16 0.00 0.00
10:51 pm 22:51 Clear 40 4.4 29 -1.7 65 65 W 7 11 30.08 1019 10 16 0.00 0.00
11:51 pm 23:51 Clear 35 1.7 27 -2.8 72 72 Calm 30.08 1019 10 16 0.00 0.00

Powered by AerisWeather